Wind_Speed
45 45 45 45 45 47 47 48 48 48 49 50 50 50 51 51 51 52 52 52 53 54 55 55 54 54 55 55 56 56 55 55 54 52 52 51 51 51 52 52 51 51 50
45 46 46 46 46 46 47 47 48 49 49 50 50 50 50 51 51 52 52 52 52 53 53 54 55 54 53 54 55 55 54 53 53 52 51 51 51 51 52 52 52 51 50
45 45 45 46 46 46 46 47 48 49 49 49 49 49 50 51 52 53 53 53 52 52 53 53 54 54 53 52 53 53 53 52 52 52 51 51 50 50 51 51 51 51 50
44 44 45 45 46 46 47 48 48 49 49 49 49 49 50 52 52 52 52 54 53 53 53 53 51 51 51 52 51 50 51 51 52 52 51 50 49 49 50 50 51 50 49
44 45 45 46 47 48 48 48 49 48 48 49 50 50 51 51 52 52 53 53 53 53 52 52 51 50 50 50 50 50 51 51 52 52 51 50 49 49 49 49 50 49 49
44 45 46 47 48 49 49 49 48 49 49 49 49 50 50 51 52 53 53 52 52 52 51 51 50 49 48 49 49 49 50 51 51 51 50 50 49 49 48 47 48 48 47
44 46 47 48 48 49 49 49 49 49 49 50 50 50 49 50 51 51 52 51 51 50 49 50 49 48 49 48 48 48 48 49 48 48 48 49 48 47 47 46 46 47 46
45 47 47 48 49 49 48 47 47 47 47 47 49 49 49 49 49 49 49 49 49 48 47 47 47 47 47 48 48 48 48 47 46 46 46 46 46 46 46 46 45 45 45
46 47 47 47 47 47 46 46 45 45 45 45 46 47 48 48 47 47 47 47 47 46 45 45 45 46 46 47 48 48 48 46 45 45 45 44 44 44 44 43 43 44 43
45 45 45 45 45 44 44 44 44 44 43 43 44 44 44 44 44 44 45 45 45 44 44 44 44 44 44 45 45 45 45 44 43 42 43 43 43 42 42 42 42 42 42
44 44 44 44 43 43 43 44 44 44 43 42 42 42 42 41 41 42 43 43 42 42 41 41 42 43 42 42 42 42 41 40 40 40 41 42 42 41 40 39 39 40 40
43 43 43 43 43 43 42 42 42 42 42 41 40 40 39 39 39 39 41 41 41 40 39 39 40 40 40 40 39 38 38 39 39 39 38 39 40 39 38 38 38 38 39
42 42 41 41 41 42 42 41 41 41 40 40 40 39 38 37 37 38 38 38 38 37 36 36 36 36 36 36 36 36 36 37 38 37 36 36 37 38 38 38 37 37 37
41 41 41 41 40 40 39 39 39 38 38 38 37 37 36 35 34 34 34 34 34 34 34 33 33 34 34 33 33 33 34 35 36 36 36 35 35 35 36 36 36 36 36
41 40 40 39 39 38 38 37 36 35 35 34 33 32 31 31 30 30 29 30 30 30 31 31 30 30 31 31 32 32 32 32 33 34 34 34 33 33 34 35 35 35 35
40 39 38 38 37 37 36 35 35 34 33 32 32 31 29 29 28 27 28 28 28 29 29 29 29 30 31 31 31 31 31 31 32 32 32 32 32 32 32 32 34 34 34
37 36 36 35 35 34 33 32 32 31 30 30 30 29 28 27 27 27 27 27 27 27 28 28 28 29 29 29 30 31 31 31 31 30 29 29 30 31 31 31 31 32 32
34 33 33 32 31 31 30 29 29 28 28 28 28 28 27 26 25 25 25 25 25 25 26 26 26 26 26 27 28 28 29 29 29 27 27 27 28 28 29 30 30 31 31
31 30 30 29 29 28 27 27 27 26 26 26 26 25 25 24 24 23 23 23 22 22 23 23 23 23 24 24 24 25 25 26 25 24 24 25 26 27 28 29 29 29 29
28 27 27 27 26 26 26 25 24 24 23 23 22 22 22 22 22 22 21 20 20 20 21 21 21 21 22 22 23 23 23 23 23 24 24 25 25 26 27 27 27 27 28
26 26 26 25 25 25 24 23 21 21 21 21 20 20 20 19 19 20 20 19 19 20 20 20 21 21 21 21 21 22 22 22 23 23 23 24 24 25 25 26 25 25 26
24 24 24 24 24 22 21 20 20 19 19 19 19 18 18 18 17 17 18 18 19 19 19 20 21 21 21 21 21 21 21 21 21 21 22 22 23 24 24 24 24 25 25
22 22 22 22 21 19 18 18 18 18 18 18 18 17 17 17 16 16 16 17 18 18 18 18 19 19 20 20 20 20 20 20 20 20 21 21 21 22 23 23 23 23 23
21 21 19 18 17 17 16 16 16 17 17 17 16 16 16 16 16 16 16 16 16 16 16 16 16 17 18 18 19 20 20 19 19 19 20 20 20 20 20 21 21 22 22
20 19 18 17 16 16 16 16 16 16 16 16 16 15 15 16 16 16 16 15 15 15 15 15 16 16 16 16 17 18 18 18 18 18 18 18 18 19 19 19 20 20 20
18 17 17 17 16 16 16 16 16 16 15 15 15 15 15 15 15 15 14 14 14 14 14 15 15 15 16 15 15 16 16 17 17 17 17 17 17 17 18 18 18 18 18
Wind_Direction
274 274 274 274 274 274 275 274 272 272 272 272 271 271 271 271 270 269 269 269 268 268 268 268 269 270 269 268 268 268 269 269 269 268 268 268 267 266 266 267 267 268 268
275 275 275 275 275 275 276 275 274 273 273 272 272 271 271 270 270 270 270 269 268 267 267 268 269 269 269 268 267 267 269 269 269 268 267 267 267 267 267 267 266 267 268
275 275 275 275 275 275 276 277 277 276 275 274 273 273 272 270 270 270 270 268 268 267 268 269 269 269 268 268 267 267 267 267 268 269 267 267 268 268 268 267 266 266 268
277 276 276 276 276 276 277 277 277 277 276 274 274 274 273 272 271 270 270 269 267 267 268 268 269 269 268 268 266 266 266 266 267 267 268 267 267 268 268 267 266 266 267
278 278 278 278 278 278 278 278 278 278 277 276 275 274 274 272 271 270 271 270 268 267 268 268 268 268 269 267 265 265 265 265 265 265 267 267 267 267 268 268 266 266 267
279 279 280 280 279 279 279 280 279 277 277 277 276 275 274 273 272 271 271 270 268 267 268 268 267 267 267 266 265 264 264 265 265 265 265 266 266 267 268 268 266 265 266
281 281 281 281 280 280 280 280 280 278 276 276 276 276 276 274 272 271 269 269 268 267 268 268 267 268 267 266 265 263 264 265 265 265 265 266 267 266 266 267 266 265 266
283 283 284 282 281 281 281 280 279 278 276 275 275 275 275 275 273 271 269 269 268 268 269 269 268 267 267 266 265 264 264 263 263 264 264 265 267 266 266 267 267 266 267
284 285 284 284 284 282 281 279 279 278 277 276 276 276 276 276 273 271 269 268 268 269 269 269 268 267 266 266 266 265 264 264 263 263 264 264 265 265 266 266 266 266 267
284 284 285 285 285 284 282 281 280 279 277 276 276 276 276 276 273 270 268 268 268 269 269 268 267 266 265 265 266 265 264 264 264 263 263 263 264 264 265 265 266 267 267
285 285 285 286 285 284 283 283 283 281 278 277 276 276 276 275 273 270 268 268 268 268 268 268 267 265 264 264 264 263 262 262 262 262 262 262 262 262 263 265 266 267 268
286 287 286 286 285 284 283 282 282 281 279 278 277 277 277 276 274 273 272 269 268 268 268 268 265 264 264 264 264 263 261 261 260 262 262 262 261 262 263 264 265 265 267
287 287 287 287 287 284 282 282 281 280 280 279 278 278 278 276 275 273 272 270 269 269 268 266 264 263 263 262 261 261 261 261 261 262 261 261 260 260 261 262 264 264 266
289 287 287 286 286 284 283 283 282 281 279 279 278 278 277 276 274 272 270 270 269 268 267 265 264 262 261 260 259 260 260 260 260 259 259 260 261 261 260 261 262 265 267
290 289 287 285 283 283 283 283 283 282 281 279 277 277 278 276 274 273 272 269 268 266 265 263 262 261 259 259 258 258 260 260 258 258 259 260 260 260 260 262 264 267 268
291 290 288 286 283 282 282 281 281 281 279 279 278 277 276 276 273 273 272 270 267 266 265 262 262 261 260 259 258 258 259 259 260 259 259 258 257 258 260 264 267 268 269
291 290 289 287 285 282 281 279 278 278 277 276 275 275 274 274 272 271 271 270 268 267 266 265 263 261 260 259 259 259 260 260 259 258 259 258 257 258 261 266 267 268 269
290 289 289 287 285 284 283 281 279 276 272 273 273 273 273 272 271 271 270 269 268 267 266 266 264 263 262 261 260 260 259 260 259 259 259 260 260 261 263 265 267 268 270
290 289 289 287 285 284 283 281 279 277 274 272 272 271 271 271 271 271 269 267 267 266 266 265 263 262 261 261 261 260 260 260 259 259 260 262 264 266 266 267 268 269 270
290 289 289 287 285 284 283 280 278 276 275 273 270 269 269 269 270 269 267 265 264 264 265 265 263 261 261 261 261 261 261 259 259 260 262 265 266 267 267 268 269 270 272
289 289 289 288 287 285 284 281 278 276 274 272 270 268 268 269 270 268 266 265 265 265 265 265 264 261 260 261 260 260 260 259 260 262 264 266 267 269 270 270 269 270 272
289 289 289 288 288 286 283 280 278 275 273 271 268 266 266 268 268 267 266 266 267 266 266 266 265 262 260 260 258 259 259 260 261 263 265 267 269 270 270 270 271 273 274
289 289 289 290 288 286 283 280 279 278 274 270 267 265 267 267 266 267 267 268 267 267 266 264 263 261 260 256 255 257 257 258 262 264 267 269 270 271 273 273 273 274 275
287 287 286 287 287 285 281 279 279 278 275 270 267 265 264 264 265 266 266 267 267 267 265 263 262 261 260 259 258 258 259 260 262 265 268 269 270 273 276 278 276 276 275
285 283 282 283 284 282 279 279 280 278 273 268 264 263 262 263 263 264 264 264 267 266 265 263 260 259 261 262 262 261 259 259 262 264 267 268 272 275 278 278 278 277 277
283 282 282 281 281 279 279 280 278 275 270 265 263 262 261 260 260 261 261 263 266 265 264 263 260 259 260 262 263 261 260 263 266 266 267 269 274 277 277 278 277 276 277
Height
5616 5614 5613 5611 5610 5609 5607 5606 5604 5603 5602 5601 5601 5600 5599 5599 5599 5599 5599 5599 5599 5600 5599 5600 5599 5598 5598 5598 5598 5598 5597 5597 5598 5602 5601 5601 5600 5601 5601 5601 5601 5602 5603
5604 5602 5600 5599 5598 5596 5594 5593 5591 5589 5588 5587 5586 5586 5585 5585 5584 5584 5584 5584 5584 5585 5585 5584 5585 5584 5583 5584 5583 5583 5584 5584 5584 5586 5587 5587 5587 5587 5587 5587 5588 5588 5589
5592 5590 5588 5587 5585 5583 5581 5579 5577 5576 5574 5572 5572 5572 5571 5570 5570 5569 5569 5569 5569 5569 5569 5569 5569 5569 5569 5569 5569 5569 5570 5570 5570 5571 5572 5573 5573 5573 5573 5574 5574 5575 5576
5580 5578 5577 5575 5573 5571 5568 5566 5564 5562 5560 5558 5558 5557 5556 5556 5555 5555 5554 5554 5554 5554 5555 5555 5555 5555 5555 5555 5555 5555 5555 5556 5556 5556 5558 5559 5560 5560 5559 5560 5561 5562 5563
5568 5566 5565 5563 5560 5558 5555 5553 5551 5548 5546 5545 5543 5542 5542 5541 5540 5540 5539 5539 5539 5540 5540 5540 5541 5541 5541 5541 5542 5542 5542 5542 5542 5543 5544 5545 5546 5546 5547 5547 5548 5549 5550
5556 5554 5552 5550 5547 5544 5542 5539 5536 5534 5532 5531 5529 5528 5527 5526 5526 5525 5524 5524 5525 5525 5526 5527 5527 5527 5527 5527 5528 5528 5528 5528 5529 5529 5530 5531 5533 5534 5534 5534 5535 5536 5538
5544 5541 5539 5536 5533 5531 5528 5525 5522 5520 5518 5517 5515 5514 5513 5512 5511 5510 5509 5509 5511 5512 5512 5513 5513 5513 5513 5514 5514 5514 5515 5515 5516 5516 5517 5519 5520 5522 5522 5522 5522 5523 5525
5531 5528 5525 5522 5519 5517 5514 5511 5508 5506 5504 5502 5501 5500 5499 5498 5497 5496 5495 5495 5496 5498 5498 5499 5499 5500 5500 5500 5500 5501 5502 5503 5503 5504 5505 5507 5507 5508 5509 5510 5510 5511 5512
5518 5515 5512 5509 5506 5503 5500 5498 5495 5493 5490 5489 5488 5486 5485 5484 5483 5482 5482 5482 5483 5484 5485 5485 5486 5486 5487 5486 5487 5488 5489 5490 5490 5491 5493 5494 5494 5495 5496 5497 5497 5498 5499
5505 5502 5498 5495 5493 5490 5487 5485 5482 5480 5478 5476 5475 5473 5472 5471 5470 5469 5469 5469 5471 5471 5472 5472 5472 5473 5473 5473 5473 5474 5475 5477 5478 5478 5480 5481 5482 5483 5484 5485 5486 5487 5487
5492 5489 5486 5483 5480 5477 5475 5472 5470 5467 5465 5464 5463 5461 5460 5459 5458 5457 5457 5457 5458 5458 5459 5459 5459 5460 5460 5461 5461 5462 5463 5464 5465 5466 5467 5469 5470 5472 5473 5474 5475 5476 5476
5480 5477 5474 5471 5468 5465 5463 5460 5457 5455 5453 5452 5451 5450 5449 5447 5447 5446 5445 5445 5446 5446 5447 5447 5447 5448 5449 5449 5449 5450 5451 5452 5453 5454 5456 5457 5459 5460 5462 5463 5464 5465 5465
5468 5465 5462 5459 5455 5453 5450 5448 5446 5443 5442 5441 5440 5439 5438 5437 5436 5435 5434 5434 5434 5435 5435 5435 5436 5436 5437 5438 5438 5439 5440 5441 5442 5444 5445 5446 5447 5449 5450 5451 5452 5453 5454
5456 5452 5450 5447 5444 5441 5438 5436 5434 5432 5431 5429 5429 5428 5427 5426 5425 5424 5424 5424 5424 5424 5425 5425 5426 5426 5426 5427 5428 5429 5430 5431 5432 5433 5435 5436 5437 5438 5439 5440 5442 5442 5443
5443 5440 5437 5435 5432 5430 5428 5425 5423 5422 5419 5419 5418 5417 5417 5416 5416 5415 5414 5415 5415 5415 5415 5416 5416 5417 5417 5417 5418 5419 5420 5421 5422 5423 5424 5425 5427 5428 5429 5430 5431 5432 5432
5432 5428 5426 5423 5421 5419 5417 5415 5413 5411 5410 5409 5408 5408 5408 5407 5407 5406 5406 5406 5406 5406 5407 5407 5408 5408 5408 5409 5409 5410 5411 5412 5413 5414 5415 5416 5417 5419 5420 5420 5421 5421 5422
5420 5417 5415 5412 5410 5408 5406 5405 5404 5403 5401 5400 5400 5399 5399 5399 5399 5398 5398 5398 5398 5398 5399 5399 5399 5399 5399 5400 5401 5402 5402 5403 5404 5405 5406 5407 5409 5410 5410 5411 5411 5411 5411
5410 5407 5404 5402 5400 5398 5396 5395 5394 5393 5393 5392 5391 5391 5391 5390 5390 5390 5390 5390 5390 5390 5391 5391 5391 5391 5391 5392 5392 5393 5394 5395 5396 5397 5398 5399 5400 5401 5401 5402 5402 5402 5401
5400 5397 5394 5392 5390 5389 5387 5386 5385 5384 5384 5384 5383 5383 5382 5383 5383 5382 5382 5383 5383 5383 5383 5383 5384 5384 5384 5385 5385 5386 5387 5388 5389 5390 5391 5392 5392 5392 5393 5393 5393 5392 5392
5390 5388 5385 5383 5382 5380 5379 5377 5377 5376 5376 5375 5375 5375 5375 5375 5375 5375 5375 5375 5376 5376 5376 5376 5377 5377 5378 5379 5379 5380 5380 5381 5382 5383 5384 5384 5384 5384 5384 5384 5384 5383 5383
5382 5380 5377 5375 5374 5372 5371 5369 5369 5368 5368 5368 5368 5368 5368 5368 5368 5368 5369 5369 5369 5370 5370 5370 5370 5371 5371 5372 5373 5374 5374 5375 5375 5376 5377 5377 5377 5377 5377 5376 5376 5375 5374
5374 5372 5370 5368 5366 5365 5363 5363 5362 5361 5361 5361 5361 5361 5361 5362 5362 5363 5363 5363 5363 5363 5363 5364 5364 5364 5365 5366 5367 5367 5368 5368 5369 5369 5370 5370 5370 5370 5369 5369 5368 5368 5367
5367 5365 5363 5361 5359 5358 5357 5356 5356 5355 5355 5354 5354 5355 5355 5356 5356 5357 5357 5357 5357 5357 5357 5357 5358 5358 5359 5360 5360 5361 5362 5362 5363 5363 5363 5364 5363 5363 5362 5362 5361 5361 5360
5360 5358 5357 5355 5354 5353 5352 5351 5350 5350 5349 5349 5349 5349 5350 5350 5351 5351 5351 5351 5351 5351 5351 5351 5351 5352 5353 5353 5354 5355 5355 5356 5356 5357 5357 5357 5357 5356 5356 5355 5354 5353 5353
5353 5352 5351 5350 5349 5348 5347 5346 5345 5344 5343 5343 5343 5344 5344 5344 5345 5345 5345 5345 5345 5345 5345 5345 5346 5346 5347 5347 5348 5348 5349 5349 5350 5350 5350 5350 5350 5350 5349 5348 5348 5347 5346
5347 5346 5345 5344 5343 5342 5341 5340 5339 5339 5338 5338 5338 5338 5338 5339 5339 5339 5340 5340 5340 5340 5340 5340 5340 5341 5341 5342 5342 5343 5343 5343 5344 5344 5344 5344 5344 5343 5343 5342 5342 5341 5340